| time (UTC) | temp C | wind direction | speed KPH | gust KPH | rain 1hr cm | rain 24hr cm | rain mn cm | humidity % | barometer mb |
| 20260905104015 | 30 | 307 | 0.0 | 3.2 | 0.00 | 0.00 | 0.00 | 36 | 1008.1 |
| 20260905103517 | 30 | 309 | 0.0 | 3.2 | 0.00 | 0.00 | 0.00 | 36 | 1008.0 |
| 20260905103014 | 30 | 238 | 0.0 | 3.2 | 0.00 | 0.00 | 0.00 | 35 | 1008.0 |
| 20260905102518 | 30 | 238 | 0.0 | 3.2 | 0.00 | 0.00 | 0.00 | 35 | 1007.9 |
| 20260905102014 | 30 | 238 | 0.0 | 3.2 | 0.00 | 0.00 | 0.00 | 35 | 1007.9 |
| 20260905101514 | 30 | 256 | 0.0 | 3.2 | 0.00 | 0.00 | 0.00 | 35 | 1007.9 |
| 20260905101013 | 31 | 250 | 0.0 | 4.8 | 0.00 | 0.00 | 0.00 | 35 | 1007.8 |
| 20260905100514 | 31 | 286 | 0.0 | 4.8 | 0.00 | 0.00 | 0.00 | 35 | 1007.7 |
| 20260905100014 | 31 | 294 | 1.6 | 9.7 | 0.00 | 0.00 | 0.00 | 35 | 1007.7 |
| 20260905095516 | 31 | 263 | 3.2 | 11.3 | 0.00 | 0.00 | 0.00 | 34 | 1007.7 |
| 20260905095016 | 31 | 246 | 4.8 | 11.3 | 0.00 | 0.00 | 0.00 | 35 | 1007.7 |
| 20260905094514 | 31 | 288 | 3.2 | 14.5 | 0.00 | 0.00 | 0.00 | 35 | 1007.7 |
| 20260905094012 | 31 | 259 | 6.4 | 16.1 | 0.00 | 0.00 | 0.00 | 35 | 1007.7 |
| 20260905093513 | 31 | 261 | 8.0 | 24.1 | 0.00 | 0.00 | 0.00 | 35 | 1007.7 |
| 20260905093015 | 31 | 266 | 9.7 | 24.1 | 0.00 | 0.00 | 0.00 | 35 | 1007.7 |
| 20260905092511 | 31 | 295 | 8.0 | 17.7 | 0.00 | 0.00 | 0.00 | 35 | 1007.8 |
| 20260905092011 | 31 | 322 | 11.3 | 17.7 | 0.00 | 0.00 | 0.00 | 36 | 1007.8 |
| 20260905091514 | 31 | 303 | 6.4 | 12.9 | 0.00 | 0.00 | 0.00 | 35 | 1007.8 |
| 20260905091010 | 31 | 275 | 3.2 | 11.3 | 0.00 | 0.00 | 0.00 | 36 | 1007.9 |
| 20260905090510 | 31 | 317 | 4.8 | 12.9 | 0.00 | 0.00 | 0.00 | 36 | 1007.9 |
| 20260905090016 | 31 | 304 | 4.8 | 12.9 | 0.00 | 0.00 | 0.00 | 36 | 1007.9 |
| 20260905085510 | 31 | 259 | 4.8 | 11.3 | 0.00 | 0.00 | 0.00 | 36 | 1007.9 |
| 20260905085010 | 31 | 299 | 4.8 | 11.3 | 0.00 | 0.00 | 0.00 | 36 | 1007.9 |
| 20260905084510 | 31 | 315 | 4.8 | 11.3 | 0.00 | 0.00 | 0.00 | 36 | 1007.9 |
| 20260905084008 | 31 | 289 | 4.8 | 11.3 | 0.00 | 0.00 | 0.00 | 36 | 1008.0 |
| 20260905083508 | 31 | 239 | 6.4 | 14.5 | 0.00 | 0.00 | 0.00 | 36 | 1008.0 |
| 20260905083008 | 31 | 269 | 8.0 | 12.9 | 0.00 | 0.00 | 0.00 | 36 | 1008.1 |
| 20260905082506 | 31 | 287 | 3.2 | 11.3 | 0.00 | 0.00 | 0.00 | 36 | 1008.1 |
| 20260905082011 | 31 | 296 | 4.8 | 12.9 | 0.00 | 0.00 | 0.00 | 36 | 1008.1 |
| 20260905081506 | 31 | 314 | 3.2 | 9.7 | 0.00 | 0.00 | 0.00 | 36 | 1008.1 |
| 20260905081007 | 31 | 276 | 3.2 | 6.4 | 0.00 | 0.00 | 0.00 | 36 | 1008.2 |
| 20260905080505 | 31 | 262 | 0.0 | 6.4 | 0.00 | 0.00 | 0.00 | 35 | 1008.2 |
| 20260905080005 | 31 | 259 | 1.6 | 8.0 | 0.00 | 0.00 | 0.00 | 36 | 1008.2 |
| 20260905075506 | 31 | 296 | 1.6 | 8.0 | 0.00 | 0.00 | 0.00 | 35 | 1008.3 |
| 20260905075005 | 30 | 263 | 4.8 | 11.3 | 0.00 | 0.00 | 0.00 | 36 | 1008.3 |
| 20260905074505 | 30 | 271 | 4.8 | 11.3 | 0.00 | 0.00 | 0.00 | 36 | 1008.2 |
| 20260905074005 | 30 | 269 | 1.6 | 4.8 | 0.00 | 0.00 | 0.00 | 36 | 1008.3 |
| 20260905073504 | 30 | 257 | 0.0 | 3.2 | 0.00 | 0.00 | 0.00 | 36 | 1008.4 |
| 20260905073003 | 30 | 205 | 0.0 | 3.2 | 0.00 | 0.00 | 0.00 | 36 | 1008.3 |
| 20260905072502 | 30 | 205 | 0.0 | 3.2 | 0.00 | 0.00 | 0.00 | 36 | 1008.3 |
| 20260905072001 | 31 | 188 | 0.0 | 0.0 | 0.00 | 0.00 | 0.00 | 35 | 1008.2 |
| 20260905071601 | 31 | 188 | 0.0 | 1.6 | 0.00 | 0.00 | 0.00 | 35 | 1008.2 |
| 20260905071104 | 31 | 188 | 0.0 | 3.2 | 0.00 | 0.00 | 0.00 | 34 | 1008.2 |
| 20260905070558 | 31 | 186 | 0.0 | 3.2 | 0.00 | 0.00 | 0.00 | 34 | 1008.2 |
| 20260905070057 | 31 | 210 | 0.0 | 1.6 | 0.00 | 0.00 | 0.00 | 34 | 1008.2 |
| 20260905065557 | 31 | 229 | 0.0 | 1.6 | 0.00 | 0.00 | 0.00 | 34 | 1008.1 |
| 20260905065056 | 31 | 229 | 0.0 | 1.6 | 0.00 | 0.00 | 0.00 | 33 | 1008.1 |
| 20260905064603 | 31 | 226 | 0.0 | 3.2 | 0.00 | 0.00 | 0.00 | 33 | 1008.1 |
| 20260905064056 | 32 | 226 | 0.0 | 3.2 | 0.00 | 0.00 | 0.00 | 33 | 1008.0 |
| 20260905063556 | 32 | 222 | 0.0 | 3.2 | 0.00 | 0.00 | 0.00 | 32 | 1008.0 |
| 20260905063058 | 32 | 195 | 0.0 | 8.0 | 0.00 | 0.00 | 0.00 | 33 | 1008.0 |
| 20260905062556 | 32 | 286 | 1.6 | 8.0 | 0.00 | 0.00 | 0.00 | 32 | 1007.9 |
| 20260905062055 | 32 | 288 | 3.2 | 8.0 | 0.00 | 0.00 | 0.00 | 32 | 1007.9 |
| 20260905061559 | 32 | 277 | 3.2 | 9.7 | 0.00 | 0.00 | 0.00 | 31 | 1007.9 |
| 20260905061057 | 32 | 262 | 3.2 | 9.7 | 0.00 | 0.00 | 0.00 | 31 | 1007.9 |
| 20260905060555 | 32 | 280 | 1.6 | 6.4 | 0.00 | 0.00 | 0.00 | 31 | 1007.8 |
| 20260905060055 | 32 | 260 | 3.2 | 6.4 | 0.00 | 0.00 | 0.00 | 31 | 1007.9 |
| 20260905055559 | 32 | 286 | 1.6 | 9.7 | 0.00 | 0.00 | 0.00 | 31 | 1007.9 |
| 20260905055055 | 32 | 296 | 3.2 | 9.7 | 0.00 | 0.00 | 0.00 | 31 | 1007.8 |
| 20260905054554 | 32 | 286 | 1.6 | 8.0 | 0.00 | 0.00 | 0.00 | 31 | 1007.8 |
| 20260905054054 | 32 | 279 | 1.6 | 8.0 | 0.00 | 0.00 | 0.00 | 31 | 1007.8 |
| 20260905053554 | 32 | 279 | 1.6 | 4.8 | 0.00 | 0.00 | 0.00 | 31 | 1007.8 |
| 20260905053103 | 32 | 240 | 1.6 | 4.8 | 0.00 | 0.00 | 0.00 | 31 | 1007.7 |
| 20260905052553 | 32 | 269 | 1.6 | 8.0 | 0.00 | 0.00 | 0.00 | 30 | 1007.7 |
| 20260905052053 | 33 | 282 | 3.2 | 8.0 | 0.00 | 0.00 | 0.00 | 30 | 1007.6 |
| 20260905051553 | 33 | 281 | 3.2 | 9.7 | 0.00 | 0.00 | 0.00 | 30 | 1007.6 |
| 20260905051053 | 33 | 248 | 3.2 | 9.7 | 0.00 | 0.00 | 0.00 | 30 | 1007.7 |
| 20260905050553 | 33 | 263 | 0.0 | 11.3 | 0.00 | 0.00 | 0.00 | 30 | 1007.6 |
| 20260905050053 | 33 | 250 | 3.2 | 11.3 | 0.00 | 0.00 | 0.00 | 30 | 1007.5 |
| 20260905045554 | 33 | 333 | 4.8 | 12.9 | 0.00 | 0.00 | 0.00 | 30 | 1007.6 |
| 20260905045053 | 33 | 292 | 4.8 | 12.9 | 0.00 | 0.00 | 0.00 | 30 | 1007.5 |
| 20260905044552 | 33 | 289 | 3.2 | 9.7 | 0.00 | 0.00 | 0.00 | 30 | 1007.5 |
| 20260905044052 | 33 | 265 | 3.2 | 9.7 | 0.00 | 0.00 | 0.00 | 29 | 1007.4 |
| 20260905043554 | 33 | 290 | 3.2 | 9.7 | 0.00 | 0.00 | 0.00 | 29 | 1007.3 |
| 20260905043057 | 33 | 269 | 3.2 | 8.0 | 0.00 | 0.00 | 0.00 | 29 | 1007.3 |
| 20260905042551 | 33 | 232 | 3.2 | 9.7 | 0.00 | 0.00 | 0.00 | 29 | 1007.2 |
| 20260905042053 | 33 | 263 | 3.2 | 9.7 | 0.00 | 0.00 | 0.00 | 29 | 1007.3 |
| 20260905041554 | 33 | 259 | 3.2 | 9.7 | 0.00 | 0.00 | 0.00 | 28 | 1007.2 |
| 20260905041053 | 33 | 265 | 3.2 | 9.7 | 0.00 | 0.00 | 0.00 | 28 | 1007.1 |
| 20260905040551 | 34 | 277 | 4.8 | 9.7 | 0.00 | 0.00 | 0.00 | 28 | 1007.1 |
| 20260905040054 | 34 | 237 | 1.6 | 14.5 | 0.00 | 0.00 | 0.00 | 28 | 1007.0 |
| 20260905035555 | 34 | 273 | 4.8 | 17.7 | 0.00 | 0.00 | 0.00 | 27 | 1007.0 |
| 20260905035054 | 34 | 265 | 3.2 | 17.7 | 0.00 | 0.00 | 0.00 | 27 | 1006.9 |
| 20260905034606 | 34 | 263 | 4.8 | 14.5 | 0.00 | 0.00 | 0.00 | 27 | 1006.9 |
| 20260905034050 | 34 | 272 | 6.4 | 14.5 | 0.00 | 0.00 | 0.00 | 27 | 1006.8 |
| 20260905033550 | 35 | 293 | 3.2 | 12.9 | 0.00 | 0.00 | 0.00 | 27 | 1006.8 |
| 20260905033112 | 35 | 299 | 8.0 | 14.5 | 0.00 | 0.00 | 0.00 | 26 | 1006.7 |
| 20260905032550 | 35 | 290 | 4.8 | 17.7 | 0.00 | 0.00 | 0.00 | 26 | 1006.7 |
| 20260905032049 | 35 | 254 | 4.8 | 16.1 | 0.00 | 0.00 | 0.00 | 26 | 1006.7 |
| 20260905031601 | 35 | 262 | 4.8 | 16.1 | 0.00 | 0.00 | 0.00 | 26 | 1006.6 |
| 20260905031048 | 35 | 302 | 6.4 | 12.9 | 0.00 | 0.00 | 0.00 | 26 | 1006.5 |
| 20260905030549 | 35 | 246 | 6.4 | 12.9 | 0.00 | 0.00 | 0.00 | 26 | 1006.4 |
| 20260905030057 | 35 | 264 | 4.8 | 14.5 | 0.00 | 0.00 | 0.00 | 26 | 1006.3 |
| 20260905025548 | 35 | 284 | 6.4 | 14.5 | 0.00 | 0.00 | 0.00 | 26 | 1006.2 |
| 20260905025049 | 35 | 296 | 6.4 | 12.9 | 0.00 | 0.00 | 0.00 | 26 | 1006.2 |
| 20260905024548 | 35 | 278 | 3.2 | 14.5 | 0.00 | 0.00 | 0.00 | 27 | 1006.1 |
| 20260905024048 | 35 | 249 | 3.2 | 14.5 | 0.00 | 0.00 | 0.00 | 27 | 1006.1 |
| 20260905023548 | 35 | 278 | 4.8 | 14.5 | 0.00 | 0.00 | 0.00 | 27 | 1006.1 |
| 20260905023055 | 35 | 264 | 1.6 | 14.5 | 0.00 | 0.00 | 0.00 | 27 | 1006.0 |
| 20260905022547 | 35 | 207 | 3.2 | 14.5 | 0.00 | 0.00 | 0.00 | 27 | 1005.8 |
| 20260905022047 | 35 | 224 | 4.8 | 12.9 | 0.00 | 0.00 | 0.00 | 28 | 1005.8 |
| 20260905021548 | 35 | 284 | 3.2 | 12.9 | 0.00 | 0.00 | 0.00 | 28 | 1005.8 |
| 20260905021047 | 35 | 245 | 3.2 | 14.5 | 0.00 | 0.00 | 0.00 | 28 | 1005.8 |
| 20260905020547 | 35 | 209 | 1.6 | 14.5 | 0.00 | 0.00 | 0.00 | 28 | 1005.7 |
| 20260905020047 | 36 | 188 | 1.6 | 14.5 | 0.00 | 0.00 | 0.00 | 27 | 1005.7 |
| 20260905015546 | 36 | 255 | 3.2 | 11.3 | 0.00 | 0.00 | 0.00 | 27 | 1005.6 |
| 20260905015046 | 36 | 253 | 3.2 | 11.3 | 0.00 | 0.00 | 0.00 | 27 | 1005.6 |
| 20260905014546 | 36 | 270 | 1.6 | 9.7 | 0.00 | 0.00 | 0.00 | 27 | 1005.5 |
| 20260905014046 | 36 | 252 | 1.6 | 9.7 | 0.00 | 0.00 | 0.00 | 26 | 1005.6 |
| 20260905013549 | 36 | 232 | 1.6 | 9.7 | 0.00 | 0.00 | 0.00 | 27 | 1005.6 |
| 20260905013046 | 36 | 227 | 3.2 | 11.3 | 0.00 | 0.00 | 0.00 | 26 | 1005.5 |
| 20260905012546 | 36 | 237 | 1.6 | 11.3 | 0.00 | 0.00 | 0.00 | 26 | 1005.5 |
| 20260905012048 | 37 | 246 | 3.2 | 11.3 | 0.00 | 0.00 | 0.00 | 26 | 1005.4 |
| 20260905011548 | 37 | 234 | 1.6 | 14.5 | 0.00 | 0.00 | 0.00 | 26 | 1005.4 |
| 20260905011045 | 37 | 217 | 3.2 | 14.5 | 0.00 | 0.00 | 0.00 | 26 | 1005.4 |
| 20260905010545 | 37 | 268 | 4.8 | 11.3 | 0.00 | 0.00 | 0.00 | 25 | 1005.4 |
| 20260905010053 | 37 | 277 | 4.8 | 14.5 | 0.00 | 0.00 | 0.00 | 25 | 1005.4 |
| 20260905005547 | 37 | 198 | 3.2 | 22.5 | 0.00 | 0.00 | 0.00 | 25 | 1005.4 |
| 20260905005045 | 37 | 260 | 8.0 | 22.5 | 0.00 | 0.00 | 0.00 | 24 | 1005.4 |
| 20260905004546 | 38 | 254 | 4.8 | 16.1 | 0.00 | 0.00 | 0.00 | 24 | 1005.4 |
| 20260905004044 | 38 | 244 | 4.8 | 17.7 | 0.00 | 0.00 | 0.00 | 24 | 1005.3 |
| 20260905003546 | 38 | 203 | 8.0 | 17.7 | 0.00 | 0.00 | 0.00 | 24 | 1005.4 |
| 20260905003044 | 38 | 178 | 3.2 | 11.3 | 0.00 | 0.00 | 0.00 | 24 | 1005.2 |
| 20260905002544 | 38 | 279 | 4.8 | 11.3 | 0.00 | 0.00 | 0.00 | 23 | 1005.3 |
| 20260905002043 | 38 | 213 | 4.8 | 12.9 | 0.00 | 0.00 | 0.00 | 23 | 1005.2 |
| 20260905001553 | 37 | 179 | 4.8 | 12.9 | 0.00 | 0.00 | 0.00 | 23 | 1005.4 |
| 20260905001043 | 37 | 272 | 4.8 | 17.7 | 0.00 | 0.00 | 0.00 | 24 | 1005.4 |
| 20260905000543 | 38 | 240 | 8.0 | 19.3 | 0.00 | 0.00 | 0.00 | 23 | 1005.5 |
| 20260905000042 | 38 | 246 | 9.7 | 19.3 | 0.00 | 0.00 | 0.00 | 22 | 1005.5 |
| 20260904235541 | 38 | 248 | 6.4 | 20.9 | 0.00 | 0.00 | 0.00 | 22 | 1005.5 |
| 20260904235041 | 38 | 301 | 6.4 | 20.9 | 0.00 | 0.00 | 0.00 | 22 | 1005.5 |
| 20260904234541 | 38 | 267 | 3.2 | 19.3 | 0.00 | 0.00 | 0.00 | 22 | 1005.5 |
| 20260904234044 | 38 | 264 | 8.0 | 20.9 | 0.00 | 0.00 | 0.00 | 22 | 1005.5 |
| 20260904233543 | 38 | 213 | 6.4 | 12.9 | 0.00 | 0.00 | 0.00 | 23 | 1005.6 |
| 20260904233046 | 38 | 245 | 4.8 | 12.9 | 0.00 | 0.00 | 0.00 | 23 | 1005.6 |
| 20260904232540 | 38 | 302 | 4.8 | 16.1 | 0.00 | 0.00 | 0.00 | 24 | 1005.5 |
| 20260904232042 | 38 | 213 | 6.4 | 17.7 | 0.00 | 0.00 | 0.00 | 24 | 1005.7 |
| 20260904231542 | 38 | 256 | 4.8 | 17.7 | 0.00 | 0.00 | 0.00 | 24 | 1005.6 |
| 20260904231039 | 38 | 297 | 9.7 | 24.1 | 0.00 | 0.00 | 0.00 | 26 | 1005.8 |
| 20260904230539 | 38 | 283 | 11.3 | 24.1 | 0.00 | 0.00 | 0.00 | 25 | 1005.8 |
| 20260904225538 | 39 | 267 | 8.0 | 22.5 | 0.00 | 0.00 | 0.00 | 23 | 1005.8 |
| 20260904225038 | 38 | 229 | 3.2 | 20.9 | 0.00 | 0.00 | 0.00 | 23 | 1005.9 |
| 20260904224538 | 38 | 257 | 9.7 | 20.9 | 0.00 | 0.00 | 0.00 | 23 | 1006.0 |
| 20260904224038 | 39 | 219 | 3.2 | 16.1 | 0.00 | 0.00 | 0.00 | 23 | 1005.9 |
| 20260904223537 | 39 | 198 | 4.8 | 22.5 | 0.00 | 0.00 | 0.00 | 23 | 1006.0 |
| 20260904223040 | 40 | 317 | 12.9 | 20.9 | 0.00 | 0.00 | 0.00 | 23 | 1006.1 |
| 20260904222540 | 40 | 272 | 3.2 | 14.5 | 0.00 | 0.00 | 0.00 | 23 | 1006.0 |
| 20260904222035 | 40 | 192 | 6.4 | 12.9 | 0.00 | 0.00 | 0.00 | 23 | 1006.1 |
| 20260904221536 | 40 | 176 | 8.0 | 12.9 | 0.00 | 0.00 | 0.00 | 23 | 1006.1 |
| 20260904221033 | 39 | 248 | 1.6 | 11.3 | 0.00 | 0.00 | 0.00 | 25 | 1006.2 |
| 20260904220532 | 39 | 188 | 3.2 | 14.5 | 0.00 | 0.00 | 0.00 | 25 | 1006.3 |
| 20260904220035 | 39 | 231 | 3.2 | 14.5 | 0.00 | 0.00 | 0.00 | 25 | 1006.3 |
| 20260904215531 | 39 | 254 | 3.2 | 11.3 | 0.00 | 0.00 | 0.00 | 25 | 1006.4 |
| 20260904215029 | 38 | 272 | 1.6 | 30.6 | 0.00 | 0.00 | 0.00 | 27 | 1006.5 |
| 20260904214529 | 38 | 205 | 9.7 | 30.6 | 0.00 | 0.00 | 0.00 | 27 | 1006.5 |
| 20260904214029 | 38 | 250 | 4.8 | 22.5 | 0.00 | 0.00 | 0.00 | 26 | 1006.6 |
| 20260904213533 | 38 | 317 | 9.7 | 22.5 | 0.00 | 0.00 | 0.00 | 27 | 1006.7 |
| 20260904213031 | 38 | 221 | 3.2 | 11.3 | 0.00 | 0.00 | 0.00 | 27 | 1006.8 |
| 20260904212528 | 38 | 155 | 3.2 | 9.7 | 0.00 | 0.00 | 0.00 | 27 | 1006.8 |
| 20260904212032 | 38 | 193 | 4.8 | 11.3 | 0.00 | 0.00 | 0.00 | 28 | 1007.0 |
| 20260904211528 | 38 | 230 | 4.8 | 11.3 | 0.00 | 0.00 | 0.00 | 28 | 1007.0 |
| 20260904211028 | 38 | 271 | 1.6 | 9.7 | 0.00 | 0.00 | 0.00 | 28 | 1006.9 |
| 20260904210526 | 38 | 132 | 3.2 | 9.7 | 0.00 | 0.00 | 0.00 | 28 | 1007.1 |
| 20260904210025 | 38 | 209 | 3.2 | 8.0 | 0.00 | 0.00 | 0.00 | 29 | 1007.1 |
| 20260904205524 | 38 | 133 | 1.6 | 8.0 | 0.00 | 0.00 | 0.00 | 30 | 1007.1 |
| 20260904205024 | 38 | 267 | 3.2 | 9.7 | 0.00 | 0.00 | 0.00 | 30 | 1007.2 |
| 20260904204530 | 37 | 184 | 1.6 | 9.7 | 0.00 | 0.00 | 0.00 | 30 | 1007.3 |
| 20260904204025 | 37 | 138 | 1.6 | 6.4 | 0.00 | 0.00 | 0.00 | 30 | 1007.3 |
| 20260904203524 | 37 | 255 | 0.0 | 6.4 | 0.00 | 0.00 | 0.00 | 31 | 1007.5 |
| 20260904203024 | 37 | 145 | 1.6 | 14.5 | 0.00 | 0.00 | 0.00 | 30 | 1007.6 |
| 20260904202524 | 37 | 275 | 4.8 | 12.9 | 0.00 | 0.00 | 0.00 | 31 | 1007.6 |
| 20260904202021 | 37 | 259 | 3.2 | 11.3 | 0.00 | 0.00 | 0.00 | 31 | 1007.7 |
| 20260904201521 | 37 | 241 | 1.6 | 9.7 | 0.00 | 0.00 | 0.00 | 31 | 1007.8 |
| 20260904201022 | 37 | 198 | 3.2 | 9.7 | 0.00 | 0.00 | 0.00 | 31 | 1007.9 |
| 20260904200521 | 37 | 172 | 0.0 | 8.0 | 0.00 | 0.00 | 0.00 | 32 | 1007.9 |
| 20260904200020 | 37 | 207 | 0.0 | 8.0 | 0.00 | 0.00 | 0.00 | 32 | 1008.0 |
| 20260904195521 | 37 | 215 | 3.2 | 9.7 | 0.00 | 0.00 | 0.00 | 33 | 1008.1 |
| 20260904195016 | 37 | 159 | 3.2 | 9.7 | 0.00 | 0.00 | 0.00 | 34 | 1008.1 |
| 20260904194516 | 36 | 79 | 1.6 | 12.9 | 0.00 | 0.00 | 0.00 | 35 | 1008.1 |
| 20260904194016 | 36 | 159 | 3.2 | 12.9 | 0.00 | 0.00 | 0.00 | 35 | 1008.2 |
| 20260904193518 | 36 | 196 | 0.0 | 9.7 | 0.00 | 0.00 | 0.00 | 36 | 1008.3 |
| 20260904193016 | 36 | 157 | 4.8 | 9.7 | 0.00 | 0.00 | 0.00 | 35 | 1008.3 |
| 20260904192515 | 36 | 57 | 3.2 | 9.7 | 0.00 | 0.00 | 0.00 | 35 | 1008.4 |
| 20260904192015 | 36 | 153 | 1.6 | 6.4 | 0.00 | 0.00 | 0.00 | 35 | 1008.4 |
| 20260904191519 | 36 | 120 | 0.0 | 11.3 | 0.00 | 0.00 | 0.00 | 36 | 1008.6 |
| 20260904191013 | 36 | 194 | 3.2 | 11.3 | 0.00 | 0.00 | 0.00 | 36 | 1008.6 |
| 20260904190513 | 36 | 176 | 1.6 | 11.3 | 0.00 | 0.00 | 0.00 | 35 | 1008.6 |
| 20260904190012 | 36 | 150 | 3.2 | 11.3 | 0.00 | 0.00 | 0.00 | 36 | 1008.7 |
| 20260904185510 | 36 | 134 | 3.2 | 9.7 | 0.00 | 0.00 | 0.00 | 36 | 1008.7 |
| 20260904185010 | 35 | 105 | 4.8 | 12.9 | 0.00 | 0.00 | 0.00 | 38 | 1008.7 |
| 20260904184509 | 35 | 169 | 4.8 | 12.9 | 0.00 | 0.00 | 0.00 | 38 | 1008.8 |
| 20260904184009 | 35 | 175 | 1.6 | 11.3 | 0.00 | 0.00 | 0.00 | 38 | 1008.9 |
| 20260904183509 | 35 | 191 | 1.6 | 11.3 | 0.00 | 0.00 | 0.00 | 40 | 1008.9 |
| 20260904183009 | 35 | 69 | 0.0 | 9.7 | 0.00 | 0.00 | 0.00 | 40 | 1009.0 |
| 20260904182507 | 35 | 222 | 0.0 | 8.0 | 0.00 | 0.00 | 0.00 | 39 | 1009.2 |
| 20260904182007 | 35 | 97 | 3.2 | 8.0 | 0.00 | 0.00 | 0.00 | 39 | 1009.2 |
| 20260904181507 | 35 | 143 | 1.6 | 9.7 | 0.00 | 0.00 | 0.00 | 38 | 1009.4 |
| 20260904181008 | 35 | 228 | 3.2 | 12.9 | 0.00 | 0.00 | 0.00 | 38 | 1009.4 |
| 20260904180506 | 35 | 165 | 3.2 | 12.9 | 0.00 | 0.00 | 0.00 | 39 | 1009.5 |
| 20260904180004 | 35 | 221 | 1.6 | 11.3 | 0.00 | 0.00 | 0.00 | 39 | 1009.4 |
| 20260904175503 | 35 | 178 | 1.6 | 11.3 | 0.00 | 0.00 | 0.00 | 39 | 1009.4 |
| 20260904175002 | 35 | 205 | 6.4 | 11.3 | 0.00 | 0.00 | 0.00 | 39 | 1009.5 |
| 20260904174503 | 35 | 144 | 0.0 | 9.7 | 0.00 | 0.00 | 0.00 | 41 | 1009.6 |
| 20260904174001 | 35 | 64 | 1.6 | 9.7 | 0.00 | 0.00 | 0.00 | 41 | 1009.6 |
| 20260904173559 | 34 | 9 | 0.0 | 6.4 | 0.00 | 0.00 | 0.00 | 40 | 1009.5 |
| 20260904173102 | 34 | 164 | 1.6 | 9.7 | 0.00 | 0.00 | 0.00 | 41 | 1009.6 |
| 20260904172558 | 34 | 146 | 1.6 | 9.7 | 0.00 | 0.00 | 0.00 | 42 | 1009.6 |
| 20260904172059 | 33 | 173 | 1.6 | 11.3 | 0.00 | 0.00 | 0.00 | 44 | 1009.6 |
| 20260904171612 | 33 | 121 | 1.6 | 11.3 | 0.00 | 0.00 | 0.00 | 45 | 1009.6 |
| 20260904171054 | 33 | 167 | 1.6 | 11.3 | 0.00 | 0.00 | 0.00 | 46 | 1009.6 |
| 20260904170553 | 33 | 62 | 4.8 | 11.3 | 0.00 | 0.00 | 0.00 | 46 | 1009.6 |
| 20260904170054 | 33 | 138 | 0.0 | 6.4 | 0.00 | 0.00 | 0.00 | 47 | 1009.6 |
| 20260904165551 | 33 | 115 | 1.6 | 6.4 | 0.00 | 0.00 | 0.00 | 48 | 1009.6 |
| 20260904165049 | 32 | 145 | 0.0 | 12.9 | 0.00 | 0.00 | 0.00 | 48 | 1009.5 |
| 20260904164559 | 32 | 122 | 1.6 | 12.9 | 0.00 | 0.00 | 0.00 | 48 | 1009.5 |
| 20260904164047 | 32 | 34 | 1.6 | 9.7 | 0.00 | 0.00 | 0.00 | 48 | 1009.4 |
| 20260904163546 | 32 | 92 | 3.2 | 9.7 | 0.00 | 0.00 | 0.00 | 48 | 1009.4 |
| 20260904163045 | 32 | 146 | 1.6 | 4.8 | 0.00 | 0.00 | 0.00 | 48 | 1009.4 |
| 20260904162543 | 32 | 272 | 0.0 | 4.8 | 0.00 | 0.00 | 0.00 | 49 | 1009.3 |
| 20260904162041 | 32 | 86 | 1.6 | 8.0 | 0.00 | 0.00 | 0.00 | 50 | 1009.4 |
| 20260904161547 | 32 | 113 | 1.6 | 8.0 | 0.00 | 0.00 | 0.00 | 50 | 1009.4 |
| 20260904161039 | 32 | 76 | 1.6 | 8.0 | 0.00 | 0.00 | 0.00 | 51 | 1009.4 |
| 20260904160537 | 31 | 315 | 0.0 | 4.8 | 0.00 | 0.00 | 0.00 | 51 | 1009.3 |
| 20260904160037 | 31 | 163 | 0.0 | 4.8 | 0.00 | 0.00 | 0.00 | 52 | 1009.3 |
| 20260904155534 | 31 | 158 | 0.0 | 6.4 | 0.00 | 0.00 | 0.00 | 53 | 1009.3 |
| 20260904155034 | 31 | 118 | 0.0 | 6.4 | 0.00 | 0.00 | 0.00 | 54 | 1009.3 |
| 20260904154535 | 31 | 331 | 0.0 | 3.2 | 0.00 | 0.00 | 0.00 | 55 | 1009.3 |
| 20260904154033 | 30 | 346 | 0.0 | 4.8 | 0.00 | 0.00 | 0.00 | 55 | 1009.3 |
| 20260904153530 | 30 | 57 | 1.6 | 4.8 | 0.00 | 0.00 | 0.00 | 56 | 1009.2 |
| 20260904153043 | 30 | 345 | 0.0 | 4.8 | 0.00 | 0.00 | 0.00 | 56 | 1009.2 |
| 20260904152526 | 30 | 70 | 0.0 | 6.4 | 0.00 | 0.00 | 0.00 | 55 | 1009.2 |
| 20260904152025 | 30 | 59 | 1.6 | 6.4 | 0.00 | 0.00 | 0.00 | 55 | 1009.2 |
| 20260904151524 | 30 | 348 | 1.6 | 4.8 | 0.00 | 0.00 | 0.00 | 56 | 1009.2 |
| 20260904151024 | 30 | 59 | 0.0 | 4.8 | 0.00 | 0.00 | 0.00 | 56 | 1009.2 |
| 20260904150521 | 30 | 161 | 0.0 | 4.8 | 0.00 | 0.00 | 0.00 | 56 | 1009.2 |
| 20260904150028 | 30 | 5 | 0.0 | 4.8 | 0.00 | 0.00 | 0.00 | 57 | 1009.2 |
| 20260904145519 | 30 | 52 | 0.0 | 6.4 | 0.00 | 0.00 | 0.00 | 56 | 1009.1 |
| 20260904145018 | 30 | 9 | 1.6 | 6.4 | 0.00 | 0.00 | 0.00 | 55 | 1009.1 |
| 20260904144516 | 30 | 83 | 0.0 | 4.8 | 0.00 | 0.00 | 0.00 | 56 | 1009.1 |
| 20260904144018 | 29 | 73 | 1.6 | 4.8 | 0.00 | 0.00 | 0.00 | 56 | 1009.0 |
| 20260904143513 | 29 | 65 | 1.6 | 4.8 | 0.00 | 0.00 | 0.00 | 56 | 1009.0 |
| 20260904143020 | 29 | 54 | 0.0 | 4.8 | 0.00 | 0.00 | 0.00 | 55 | 1009.0 |
| 20260904142513 | 29 | 49 | 1.6 | 3.2 | 0.00 | 0.00 | 0.00 | 54 | 1008.9 |
| 20260904142008 | 29 | 103 | 0.0 | 3.2 | 0.00 | 0.00 | 0.00 | 54 | 1008.9 |
| 20260904141513 | 28 | 110 | 1.6 | 3.2 | 0.00 | 0.00 | 0.00 | 53 | 1008.8 |
| 20260904141006 | 28 | 84 | 0.0 | 4.8 | 0.00 | 0.00 | 0.00 | 53 | 1008.8 |
| 20260904140505 | 28 | 91 | 1.6 | 4.8 | 0.00 | 0.00 | 0.00 | 54 | 1008.7 |
| 20260904140004 | 28 | 69 | 0.0 | 3.2 | 0.00 | 0.00 | 0.00 | 53 | 1008.6 |
| 20260904135503 | 28 | 40 | 0.0 | 4.8 | 0.00 | 0.00 | 0.00 | 54 | 1008.6 |
| 20260904135001 | 28 | 69 | 1.6 | 4.8 | 0.00 | 0.00 | 0.00 | 54 | 1008.5 |
| 20260904134602 | 28 | 83 | 0.0 | 4.8 | 0.00 | 0.00 | 0.00 | 53 | 1008.3 |
| 20260904134058 | 28 | 46 | 1.6 | 6.4 | 0.00 | 0.00 | 0.00 | 53 | 1008.3 |
| 20260904133559 | 27 | 54 | 3.2 | 6.4 | 0.00 | 0.00 | 0.00 | 53 | 1008.2 |
| 20260904133055 | 27 | 58 | 1.6 | 4.8 | 0.00 | 0.00 | 0.00 | 52 | 1008.2 |
| 20260904132554 | 27 | 38 | 0.0 | 6.4 | 0.00 | 0.00 | 0.00 | 52 | 1008.1 |
| 20260904132053 | 27 | 55 | 1.6 | 9.7 | 0.00 | 0.00 | 0.00 | 51 | 1008.0 |
| 20260904131601 | 27 | 56 | 4.8 | 9.7 | 0.00 | 0.00 | 0.00 | 51 | 1007.9 |
| 20260904131052 | 27 | 49 | 4.8 | 11.3 | 0.00 | 0.00 | 0.00 | 51 | 1007.8 |
| 20260904130549 | 27 | 35 | 4.8 | 11.3 | 0.00 | 0.00 | 0.00 | 51 | 1007.8 |
| 20260904130049 | 27 | 23 | 4.8 | 11.3 | 0.00 | 0.00 | 0.00 | 51 | 1007.7 |
| 20260904125549 | 27 | 47 | 1.6 | 4.8 | 0.00 | 0.00 | 0.00 | 52 | 1007.7 |
| 20260904125048 | 27 | 50 | 0.0 | 4.8 | 0.00 | 0.00 | 0.00 | 52 | 1007.6 |
| 20260904124548 | 27 | 39 | 3.2 | 4.8 | 0.00 | 0.00 | 0.00 | 52 | 1007.5 |
| 20260904124048 | 27 | 47 | 0.0 | 3.2 | 0.00 | 0.00 | 0.00 | 52 | 1007.5 |
| 20260904123546 | 27 | 44 | 0.0 | 3.2 | 0.00 | 0.00 | 0.00 | 52 | 1007.4 |
| 20260904123046 | 27 | 44 | 0.0 | 4.8 | 0.00 | 0.00 | 0.00 | 53 | 1007.3 |
| 20260904122544 | 27 | 24 | 0.0 | 3.2 | 0.00 | 0.00 | 0.00 | 53 | 1007.2 |
| 20260904122044 | 27 | 79 | 0.0 | 3.2 | 0.00 | 0.00 | 0.00 | 53 | 1007.2 |
| 20260904121543 | 27 | 96 | 0.0 | 3.2 | 0.00 | 0.00 | 0.00 | 53 | 1007.3 |
| 20260904121043 | 27 | 259 | 0.0 | 0.0 | 0.00 | 0.00 | 0.00 | 53 | 1007.1 |
| 20260904120542 | 27 | 259 | 0.0 | 0.0 | 0.00 | 0.00 | 0.00 | 52 | 1007.1 |
| 20260904120040 | 28 | 259 | 0.0 | 0.0 | 0.00 | 0.00 | 0.00 | 52 | 1007.1 |
| 20260904115539 | 28 | 259 | 0.0 | 0.0 | 0.00 | 0.00 | 0.00 | 52 | 1007.1 |
| 20260904115038 | 28 | 259 | 0.0 | 0.0 | 0.00 | 0.00 | 0.00 | 53 | 1007.0 |
| 20260904114538 | 28 | 259 | 0.0 | 0.0 | 0.00 | 0.00 | 0.00 | 51 | 1007.1 |
| 20260904114037 | 28 | 259 | 0.0 | 3.2 | 0.00 | 0.00 | 0.00 | 51 | 1007.0 |
| 20260904113540 | 28 | 259 | 0.0 | 3.2 | 0.00 | 0.00 | 0.00 | 51 | 1007.0 |
| 20260904113043 | 28 | 259 | 0.0 | 1.6 | 0.00 | 0.00 | 0.00 | 50 | 1007.0 |
| 20260904112536 | 28 | 259 | 0.0 | 0.0 | 0.00 | 0.00 | 0.00 | 50 | 1007.0 |
| 20260904112035 | 28 | 259 | 0.0 | 3.2 | 0.00 | 0.00 | 0.00 | 49 | 1007.0 |
| 20260904111538 | 28 | 259 | 0.0 | 3.2 | 0.00 | 0.00 | 0.00 | 50 | 1006.9 |
| 20260904111035 | 28 | 222 | 0.0 | 0.0 | 0.00 | 0.00 | 0.00 | 49 | 1006.9 |
| 20260904110534 | 28 | 222 | 0.0 | 0.0 | 0.00 | 0.00 | 0.00 | 49 | 1006.9 |
| 20260904110033 | 28 | 222 | 0.0 | 0.0 | 0.00 | 0.00 | 0.00 | 48 | 1007.0 |
| 20260904105534 | 28 | 222 | 0.0 | 3.2 | 0.00 | 0.00 | 0.00 | 48 | 1006.9 |
| 20260904105033 | 28 | 222 | 0.0 | 3.2 | 0.00 | 0.00 | 0.00 | 48 | 1007.0 |
| 20260904104531 | 29 | 254 | 0.0 | 1.6 | 0.00 | 0.00 | 0.00 | 48 | 1006.9 |